Wind_Speed
4 5 3 2 2 5 5 5 4 5 5 4 3 4 8 7 8 11 5 6 4 1 2 1 1 4 5 7 8 8 8 7 7 8 7 7 7 7 5 6 6 6 5
7 3 4 3 2 3 6 5 6 2 2 4 6 3 6 5 3 4 4 5 3 5 3 2 3 4 5 8 6 8 10 8 8 9 9 9 9 8 7 6 7 7 7
9 11 7 3 2 4 9 8 2 1 1 5 5 4 4 4 0 6 8 7 4 6 5 5 2 3 5 6 9 8 8 9 10 9 9 9 9 9 10 9 8 8 8
12 8 8 5 4 5 8 8 4 3 5 7 10 3 5 4 3 4 3 3 5 3 2 3 3 3 3 5 6 9 11 10 11 12 11 9 9 10 10 11 10 9 9
9 7 4 2 3 6 7 9 3 6 9 6 1 4 5 1 2 5 1 4 3 1 3 3 2 3 3 6 7 8 9 11 11 10 12 13 13 12 11 11 12 12 11
12 7 3 7 4 5 7 9 7 5 6 3 8 3 3 1 3 5 3 5 3 1 3 3 5 4 5 6 7 9 9 10 11 12 13 12 12 13 15 15 14 14 13
13 11 9 10 7 8 7 5 5 9 3 2 6 1 4 2 12 3 7 4 5 3 5 8 5 5 3 6 4 6 9 9 11 13 13 12 14 15 15 15 15 15 16
10 8 4 10 9 7 8 7 4 3 2 3 10 1 1 7 10 7 7 3 4 4 3 5 8 6 6 3 3 3 4 8 9 10 10 11 14 16 16 17 17 17 17
12 9 11 10 10 9 8 7 6 2 4 3 7 4 3 3 7 9 4 3 1 6 8 8 7 3 1 3 4 1 2 2 5 8 11 12 13 14 17 18 17 18 19
13 7 12 13 11 14 11 9 6 1 10 7 3 2 4 3 4 6 7 2 1 4 2 2 5 6 5 5 5 3 3 3 3 4 6 8 11 14 17 19 19 20 20
15 9 13 15 17 14 13 10 8 6 11 11 7 8 4 3 4 4 8 5 5 7 5 2 6 8 7 8 8 7 7 7 8 8 8 7 7 9 12 14 16 18 19
18 14 17 18 15 19 17 13 11 9 9 14 11 9 9 2 2 3 2 3 5 6 12 8 5 6 8 8 10 11 11 10 13 14 13 12 12 11 11 11 12 13 14
18 18 21 21 18 17 18 14 10 9 10 12 14 13 13 7 4 4 8 8 5 3 0 12 10 8 8 10 10 11 11 14 16 20 21 18 16 15 14 14 14 14 14
16 15 16 20 17 16 15 12 10 9 8 9 12 16 15 13 10 5 4 7 8 9 8 7 10 12 11 10 11 11 13 14 18 21 24 19 14 13 15 17 17 17 17
19 16 18 16 15 17 17 14 12 11 11 9 9 11 16 18 15 11 7 7 7 6 9 8 7 4 7 10 10 11 12 18 19 22 21 19 16 15 17 17 17 19 21
27 20 25 24 20 19 19 19 16 14 13 10 11 11 11 13 15 14 12 10 9 9 11 13 12 8 6 10 13 17 18 19 21 23 25 20 18 19 19 20 19 18 18
29 30 28 27 26 24 23 22 18 15 16 15 15 14 13 12 11 17 16 13 11 12 11 12 11 10 13 16 14 16 17 19 22 26 20 22 22 21 19 20 20 19 19
38 34 32 32 30 28 25 26 23 19 19 18 17 19 19 16 15 15 20 17 15 12 13 14 14 15 17 15 16 19 19 18 23 23 21 26 23 22 18 23 25 25 26
43 41 40 39 38 35 30 28 27 21 21 19 19 20 19 18 16 16 15 15 13 12 15 18 20 19 17 14 16 14 17 19 20 23 24 18 19 20 23 21 21 23 27
42 44 43 43 41 39 35 31 29 25 25 23 23 21 21 21 18 16 16 16 14 16 16 15 18 22 22 18 18 20 24 26 27 18 15 17 20 23 26 28 29 30 25
43 43 44 44 43 40 38 34 30 29 27 25 25 27 24 24 21 19 19 18 17 17 17 17 21 26 28 27 23 21 22 24 23 21 25 28 31 32 31 32 34 34 32
42 44 45 43 42 39 38 33 31 33 29 26 26 27 26 25 24 23 22 20 19 22 22 23 27 27 24 22 20 18 19 22 25 28 28 33 29 27 23 19 17 16 17
39 41 41 39 37 36 36 32 32 34 30 27 26 27 28 27 26 26 26 24 23 22 24 25 28 24 19 21 19 22 22 24 29 30 24 26 21 22 20 20 18 18 20
38 37 37 34 32 32 30 28 29 30 29 27 28 26 27 28 29 27 25 24 25 26 26 27 28 23 20 19 19 22 24 28 29 23 21 27 26 29 24 24 26 24 25
36 35 32 29 28 27 23 22 27 30 28 28 29 28 27 29 27 25 24 24 25 28 27 27 27 19 18 19 20 22 25 29 29 30 29 29 28 26 31 36 37 30 27
32 28 24 24 21 23 19 20 21 26 29 31 29 29 30 30 29 23 22 23 27 26 24 24 16 15 17 20 23 20 21 28 29 28 24 25 28 28 35 34 35 33 36
Wind_Direction
203 216 251 219 295 308 325 343 345 12 333 321 13 50 19 320 343 16 50 38 73 197 242 296 240 219 207 203 199 192 187 198 208 202 206 225 213 210 217 225 221 223 238
298 294 245 209 295 244 320 318 342 339 57 2 342 350 49 19 346 7 3 331 319 311 318 305 254 234 231 223 210 209 212 197 203 208 214 224 218 211 222 241 243 235 237
298 262 273 248 255 309 312 318 319 39 282 305 333 357 357 62 292 324 325 330 247 281 279 303 294 246 237 229 224 225 223 223 216 212 215 215 222 227 226 241 243 246 252
292 283 297 265 235 314 305 322 295 312 281 318 317 277 272 278 282 288 257 217 248 270 332 272 307 324 253 229 230 231 236 227 225 226 220 219 226 232 235 239 241 249 255
280 270 237 309 266 289 280 306 312 264 311 338 114 33 128 268 115 44 70 86 164 79 228 251 233 307 298 220 231 238 236 231 231 232 236 232 235 241 242 242 242 246 250
267 255 230 247 233 255 280 294 279 285 325 356 332 353 177 51 158 101 76 132 47 310 336 245 227 289 277 248 234 237 236 235 238 243 245 241 244 243 248 249 250 249 250
267 259 239 237 244 244 277 278 305 317 207 312 337 216 192 163 143 184 165 133 83 341 307 319 266 283 240 251 256 237 236 235 237 240 246 248 250 251 249 253 255 253 250
263 249 269 222 232 217 233 263 328 93 134 50 0 86 148 175 137 170 203 8 188 210 266 338 318 270 248 233 289 307 259 241 243 241 245 248 253 251 254 255 255 261 263
228 245 220 219 214 222 225 255 281 317 162 95 32 72 71 127 188 185 221 49 337 238 265 303 9 9 311 302 326 325 314 267 243 248 255 259 255 256 258 260 259 258 261
217 232 224 234 217 221 215 233 287 154 166 154 157 55 52 77 109 164 203 228 147 192 271 348 5 350 351 357 342 3 10 347 320 286 261 254 256 256 256 258 262 262 262
214 236 219 215 210 212 220 241 253 245 191 175 166 163 115 100 74 147 201 232 240 246 230 300 352 352 341 341 341 330 319 333 327 317 305 289 272 266 265 264 264 264 261
228 228 214 211 221 218 223 243 256 242 203 198 191 191 181 136 195 201 193 250 23 236 240 249 278 313 320 323 335 342 338 323 333 329 317 301 290 282 276 275 273 272 270
230 233 215 218 223 214 224 236 236 227 214 211 209 202 191 186 202 232 254 262 262 277 48 251 247 274 278 284 311 306 317 332 332 335 333 312 298 285 280 279 277 278 278
234 221 226 225 219 223 232 231 232 230 219 218 218 206 205 195 205 213 236 251 271 276 262 34 225 247 255 276 291 299 300 319 327 329 324 319 306 303 294 284 280 278 276
242 234 232 238 228 228 232 233 226 227 220 213 214 216 212 214 214 214 223 248 255 262 275 240 293 339 229 259 290 289 302 310 315 316 314 317 309 302 304 304 303 292 284
225 228 234 236 241 238 232 225 224 221 222 230 234 214 207 200 215 219 227 234 243 259 265 283 299 293 269 277 289 297 306 310 314 314 303 299 302 303 304 304 305 300 294
220 223 233 236 238 244 238 228 222 227 220 221 229 229 226 223 230 223 226 228 240 255 267 271 282 288 296 295 292 298 297 300 298 306 305 293 295 301 298 294 294 293 299
224 228 231 237 240 241 238 230 225 227 225 225 230 229 232 235 239 222 224 237 251 239 251 268 275 279 280 283 289 291 295 288 289 303 302 305 292 286 300 304 280 282 287
225 229 233 237 242 244 242 237 230 230 227 236 234 230 234 231 227 218 216 222 237 247 254 262 271 275 274 276 288 291 284 283 293 296 295 288 282 283 285 292 289 283 280
228 231 236 240 244 246 246 244 233 233 229 233 238 240 240 240 234 225 227 240 245 248 255 272 284 283 274 267 272 287 288 293 300 295 286 277 276 275 274 278 281 279 276
234 237 239 242 245 247 249 244 238 235 232 232 235 239 243 241 236 234 237 239 248 257 266 284 298 301 285 276 276 285 295 302 302 301 293 291 289 287 285 282 280 276 276
232 237 238 241 245 248 247 249 242 236 236 235 237 241 243 243 241 236 240 248 258 261 264 277 302 306 296 286 289 291 297 306 307 311 313 306 299 295 299 296 295 287 278
234 236 239 240 245 249 251 253 246 238 240 241 243 244 245 244 240 240 248 255 256 263 265 285 301 303 289 301 292 297 302 308 309 310 306 308 323 317 319 312 301 303 304
234 234 237 244 250 253 254 252 247 241 242 245 248 249 253 248 246 251 259 268 269 273 277 286 297 295 288 289 286 292 299 302 303 307 308 301 316 311 312 309 308 295 287
227 233 242 244 251 253 254 246 239 241 241 246 248 249 256 254 250 254 263 268 276 276 278 290 296 280 278 288 297 294 295 294 293 302 304 303 304 305 308 304 306 307 303
226 233 237 241 249 260 257 249 243 237 237 244 248 245 258 253 258 257 267 272 276 279 286 291 278 281 287 296 297 291 298 296 297 301 309 310 312 317 313 312 313 309 310
Height
1581 1582 1583 1583 1584 1582 1582 1583 1583 1583 1584 1585 1585 1586 1586 1581 1580 1581 1581 1582 1582 1584 1586 1584 1584 1585 1585 1586 1586 1586 1589 1590 1592 1593 1595 1596 1598 1599 1600 1601 1602 1603 1604
1579 1580 1581 1581 1582 1581 1581 1581 1583 1583 1584 1585 1584 1584 1584 1584 1581 1581 1582 1582 1582 1584 1584 1582 1583 1584 1584 1585 1585 1586 1588 1588 1590 1591 1593 1595 1596 1597 1598 1600 1601 1602 1602
1578 1579 1580 1581 1581 1581 1581 1582 1582 1581 1582 1583 1583 1582 1583 1583 1583 1582 1581 1580 1582 1583 1582 1582 1582 1583 1583 1584 1583 1585 1586 1588 1588 1589 1591 1592 1594 1595 1596 1598 1599 1600 1601
1576 1577 1577 1578 1579 1580 1581 1581 1581 1581 1580 1580 1581 1582 1581 1582 1582 1581 1582 1581 1581 1581 1581 1582 1582 1582 1582 1583 1583 1583 1585 1586 1586 1587 1588 1590 1591 1593 1594 1595 1597 1598 1599
1575 1576 1577 1577 1578 1579 1580 1579 1579 1579 1578 1578 1579 1580 1580 1580 1580 1580 1580 1580 1579 1579 1580 1581 1582 1582 1581 1581 1582 1582 1584 1583 1584 1586 1587 1588 1589 1590 1592 1593 1593 1594 1595
1572 1574 1575 1576 1577 1577 1577 1577 1577 1577 1576 1576 1576 1576 1577 1577 1579 1580 1580 1580 1579 1578 1579 1579 1580 1580 1580 1580 1581 1582 1582 1582 1583 1584 1586 1586 1587 1588 1589 1590 1591 1592 1593
1569 1570 1572 1573 1575 1575 1576 1575 1575 1575 1574 1574 1574 1574 1574 1575 1577 1578 1578 1579 1579 1578 1578 1578 1578 1578 1579 1579 1580 1579 1579 1580 1581 1583 1583 1584 1585 1586 1586 1587 1587 1588 1589
1568 1569 1569 1570 1572 1572 1572 1573 1573 1573 1573 1574 1573 1573 1574 1576 1576 1577 1578 1578 1578 1577 1577 1577 1577 1577 1577 1578 1578 1578 1578 1579 1580 1581 1581 1582 1582 1583 1583 1583 1584 1586 1587
1565 1566 1567 1568 1569 1570 1570 1571 1571 1571 1571 1573 1573 1573 1574 1575 1575 1576 1577 1578 1577 1577 1577 1578 1576 1575 1576 1577 1577 1577 1577 1577 1578 1579 1579 1580 1580 1580 1580 1581 1581 1582 1583
1562 1563 1565 1566 1568 1568 1568 1569 1569 1569 1569 1570 1571 1573 1573 1574 1575 1577 1577 1577 1577 1577 1577 1577 1576 1576 1576 1576 1576 1576 1577 1577 1577 1577 1576 1576 1577 1576 1576 1577 1577 1578 1579
1558 1560 1562 1564 1566 1567 1567 1568 1568 1568 1568 1568 1570 1571 1572 1574 1574 1575 1576 1577 1577 1576 1576 1575 1575 1575 1575 1575 1576 1576 1576 1576 1576 1575 1575 1574 1574 1574 1573 1573 1573 1573 1574
1555 1557 1559 1562 1564 1565 1566 1566 1567 1567 1567 1568 1570 1570 1571 1571 1573 1573 1574 1575 1574 1575 1575 1574 1574 1574 1573 1574 1574 1574 1574 1574 1574 1573 1572 1572 1571 1571 1570 1570 1569 1569 1569
1552 1554 1556 1558 1560 1563 1564 1565 1566 1566 1566 1566 1566 1568 1569 1570 1570 1571 1571 1572 1572 1573 1573 1573 1573 1572 1571 1571 1571 1572 1572 1572 1572 1571 1570 1569 1568 1567 1567 1566 1566 1566 1566
1549 1551 1553 1556 1558 1560 1561 1562 1563 1563 1563 1564 1565 1566 1567 1568 1569 1569 1570 1570 1570 1570 1570 1570 1572 1572 1572 1570 1571 1570 1570 1569 1569 1568 1567 1565 1564 1563 1563 1562 1562 1562 1562
1545 1548 1550 1552 1554 1556 1558 1559 1560 1560 1561 1561 1563 1564 1564 1565 1566 1567 1568 1568 1568 1568 1569 1570 1571 1570 1569 1570 1569 1568 1567 1566 1565 1565 1564 1563 1561 1560 1559 1559 1558 1558 1558
1541 1543 1544 1546 1550 1552 1553 1554 1555 1557 1557 1558 1560 1561 1562 1562 1563 1565 1565 1566 1565 1566 1566 1566 1567 1568 1568 1568 1566 1565 1564 1562 1561 1560 1559 1559 1557 1556 1555 1555 1554 1553 1552
1535 1537 1539 1542 1545 1547 1549 1550 1552 1553 1552 1554 1557 1558 1558 1559 1560 1561 1562 1563 1563 1564 1563 1564 1563 1564 1563 1563 1562 1561 1560 1559 1558 1557 1555 1554 1552 1551 1550 1550 1549 1549 1547
1528 1530 1534 1537 1539 1540 1542 1545 1547 1549 1550 1550 1552 1553 1554 1555 1556 1557 1559 1560 1560 1560 1560 1559 1558 1558 1558 1558 1557 1556 1555 1553 1552 1551 1550 1548 1547 1546 1545 1544 1543 1543 1542
1521 1524 1526 1528 1531 1533 1537 1539 1542 1544 1546 1547 1548 1550 1551 1551 1551 1552 1553 1555 1555 1556 1556 1555 1554 1553 1552 1552 1551 1550 1549 1548 1547 1545 1543 1542 1541 1540 1539 1538 1537 1535 1535
1513 1516 1518 1521 1524 1527 1530 1532 1536 1539 1540 1542 1545 1545 1546 1546 1547 1548 1549 1549 1550 1551 1551 1552 1551 1549 1548 1546 1544 1543 1542 1541 1539 1538 1537 1536 1535 1534 1532 1530 1530 1528 1527
1505 1508 1511 1514 1518 1521 1524 1527 1532 1534 1536 1537 1538 1540 1541 1541 1542 1542 1544 1544 1545 1546 1546 1545 1544 1542 1540 1539 1538 1537 1535 1533 1533 1532 1530 1529 1527 1526 1525 1524 1522 1519 1518
1499 1501 1503 1508 1512 1517 1520 1523 1526 1528 1530 1531 1533 1534 1535 1537 1538 1538 1538 1540 1541 1540 1540 1541 1539 1536 1533 1533 1533 1530 1528 1527 1525 1525 1522 1522 1519 1516 1515 1512 1510 1510 1508
1491 1494 1499 1505 1509 1513 1514 1516 1520 1523 1526 1527 1527 1529 1530 1531 1532 1533 1535 1536 1536 1536 1536 1535 1532 1530 1529 1528 1527 1525 1523 1521 1518 1517 1514 1511 1511 1509 1507 1505 1504 1502 1502
1485 1490 1495 1500 1503 1504 1508 1511 1514 1516 1519 1521 1522 1523 1525 1526 1528 1530 1532 1533 1532 1530 1530 1529 1526 1524 1523 1522 1521 1519 1518 1515 1513 1512 1511 1505 1504 1502 1500 1498 1496 1497 1496
1480 1485 1489 1493 1496 1497 1500 1503 1508 1510 1512 1514 1516 1519 1520 1521 1522 1524 1526 1526 1526 1525 1524 1523 1519 1517 1517 1517 1516 1514 1512 1510 1507 1505 1505 1501 1499 1494 1492 1489 1489 1486 1485
1473 1479 1484 1487 1492 1495 1496 1497 1500 1501 1503 1509 1512 1513 1514 1514 1516 1518 1518 1519 1519 1518 1517 1516 1515 1512 1512 1512 1511 1509 1507 1504 1502 1498 1499 1496 1491 1489 1482 1480 1480 1478 1476